Regional Weather Roundup
Issued by NWS Mt. Holly, NJ

Home | Current Version | Previous Version | Text Only | Print | Product List | Glossary On
Versions: 1 2 3 4 5 6 7 8 9 10 11 12 13 14 15 16 17 18 19 20 21 22 23 24 25 26 27 28 29 30 31 32 33 34 35 36 37 38 39 40 41 42 43 44 45 46 47 48 49 50
000
ASUS41 KPHI 311811
RWRPHI

REGIONAL WEATHER ROUNDUP
NATIONAL WEATHER SERVICE MOUNT HOLLY NJ
200 PM EDT MON AUG 31 2015

NOTE:  "FAIR" INDICATES FEW OR NO CLOUDS BELOW 12,000 FEET WITH NO
SIGNIFICANT WEATHER AND/OR OBSTRUCTIONS TO VISIBILITY.

 * = STATION DOES NOT REPORT PRECIPITATION (E.G. RAIN, SNOW, ETC.)
        OR FOG.

NJZ015>026-311900-
SOUTHERN NEW JERSEY

CITY           SKY/WX    TMP DP  RH WIND       PRES   REMARKS
POMONA         CLOUDY    88  67  49 SW12G18   30.04F HX  91
6HR MIN TEMP:  75; 6HR MAX TEMP:  89;

WILDWOOD*      CLOUDY    84  68  58 W6        30.07F
MILLVILLE      CLOUDY    86  68  54 VRB7      30.05F
WRIGHTSTOWN    PTSUNNY   87  69  53 W7        30.00F HX  91
MOUNT HOLLY    PTSUNNY   87  68  52 SW3       30.02F HX  90
TRENTON        CLOUDY    86  69  56 SW8       30.03F HX  90
6HR MIN TEMP:  74; 6HR MAX TEMP:  87;


$$
NJZ001>014-311900-
NORTHERN NEW JERSEY

CITY           SKY/WX    TMP DP  RH WIND       PRES   REMARKS
SUSSEX         PTSUNNY   87  66  49 W7        30.02F
ANDOVER*         N/A     82  69  64 CALM      30.03F
MORRISTOWN     CLOUDY    90  68  48 W12G17    30.01F HX  93
NEWARK         CLOUDY    92  65  40 W10       30.00F HX  94
TETERBORO      PTSUNNY   89  65  44 SW9       29.98F HX  91
CALDWELL       PTSUNNY   88  66  48 VRB7      30.00F HX  90
SOMERVILLE     PTSUNNY   89  66  46 VRB7      30.00F HX  91
ALLAIRE*       CLOUDY    88  66  48 W10       30.03F HX  90
TOMS RIVER*    CLOUDY    91  64  40 SW8       30.02F HX  93

$$
PAZ043-044-047-054-055-060>062-066>071-311900-
EASTERN PENNSYLVANIA

CITY           SKY/WX    TMP DP  RH WIND       PRES   REMARKS
PHILADELPHIA   CLOUDY    89  65  44 W14       30.03F HX  91
6HR MIN TEMP:  77; 6HR MAX TEMP:  90; 6HR PCP: TRACE;

NORTH PHILA    CLOUDY    91  65  41 NW7       30.04F HX  93
BLUE BELL      CLOUDY    86  70  58 W5        30.04F HX  90
DOYLESTOWN     CLOUDY    85  67  54 SW5       30.04F
QUAKERTOWN*    PTSUNNY   86  68  54 W6        30.05F
POTTSTOWN      PTSUNNY   86  69  56 CALM      30.06F HX  90
LANCASTER      PTSUNNY   86  67  52 W8        30.05F
COATESVILLE    PTSUNNY   84  70  61 W6        30.07F
READING        MOSUNNY   87  67  51 W6        30.03F HX  90
6HR MIN TEMP:  72; 6HR MAX TEMP:  88;

ALLENTOWN      MOSUNNY   89  66  46 W10G17    30.03F HX  91
6HR MIN TEMP:  72; 6HR MAX TEMP:  89;

MOUNT POCONO   PTSUNNY   79  63  57 W9        30.10F
6HR MIN TEMP:  67; 6HR MAX TEMP:  80;

HAZLETON       PTSUNNY   81  66  61 W5        30.13F
WILKES BARRE   LGT RAIN  80  70  71 N8        30.05F

$$
DEZALL-MDZ008-012-015-019-020-311900-
DELAWARE AND EASTERN MARYLAND

CITY           SKY/WX    TMP DP  RH WIND       PRES   REMARKS
WILMINGTON     PTSUNNY   88  69  53 VRB3      30.04F HX  92
6HR MIN TEMP:  75; 6HR MAX TEMP:  90;

DOVER          CLOUDY    88  68  51 SW9       30.05F HX  92
GEORGETOWN     CLOUDY    86  64  47 W8        30.08F
6HR MIN TEMP:  74; 6HR MAX TEMP:  87;

EASTON         SUNNY     84  68  58 W9        30.11F
ABERDEEN       PTSUNNY   88  70  55 SW14      30.05F HX  92
PATUXENT       CLOUDY    81  66  60 SW10      30.09S
OCEAN CITY     CLOUDY    84  63  49 SW8       30.08F
WALLOPS ISLAND CLOUDY    85  65  51 W9        30.10F
CAMBRIDGE      CLOUDY    82  68  61 W7        30.08S
SALISBURY      CLOUDY    83  67  58 W8        30.08F

$$
PAZ001-021-NYZ056-072-MDZ011-DCZ001-311900-
OTHER NEARBY LOCATIONS

CITY           SKY/WX    TMP DP  RH WIND       PRES   REMARKS
HARRISBURG     PTSUNNY   86  68  54 CALM      30.04F
STATE COLLEGE  MOSUNNY   84  66  54 W9        30.10F
WILLIAMSPORT   PTSUNNY   82  68  62 W7        30.05F
BINGHAMTON     PTSUNNY   79  65  62 NW7       30.06F
NEW YORK CITY  PTSUNNY   88  66  48 VRB6      30.02F HX  90
BALTIMORE      CLOUDY    85  66  53 S7        30.05F
WASHINGTON DC  CLOUDY    84  70  62 S13       30.08F

$$


USA.gov is the U.S. government's official web portal to all federal, state and local government web resources and services.